Time,TemperatureF,DewpointF,PressureIn,WindDirection,WindDirectionDegrees,WindSpeedMPH,WindSpeedGustMPH,Humidity,HourlyPrecipIn,Conditions,Clouds,dailyrainin,SoftwareType,DateUTC
2013-06-17 00:02:00,56.0,51.0,30.03,SW,235,2.0,-999.0,82,-99.99,,,-99.99,,2013-06-17 07:02:00,
2013-06-17 00:11:00,55.0,50.0,30.03,SW,215,6.0,-999.0,84,-99.99,,,-99.99,,2013-06-17 07:11:00,
2013-06-17 00:22:00,55.0,50.0,30.04,SW,236,7.0,-999.0,84,-99.99,,,-99.99,,2013-06-17 07:22:00,
2013-06-17 00:33:00,55.0,50.0,30.04,SW,236,7.0,-999.0,84,-99.99,,,-99.99,,2013-06-17 07:33:00,
2013-06-17 00:42:00,55.0,50.0,30.04,WSW,238,1.0,-999.0,84,-99.99,,,-99.99,,2013-06-17 07:42:00,
2013-06-17 00:52:00,55.0,50.0,30.04,WSW,238,1.0,-999.0,84,-99.99,,,-99.99,,2013-06-17 07:52:00,
2013-06-17 01:01:00,55.0,51.0,30.04,WSW,246,0.0,-999.0,85,-99.99,,,-99.99,,2013-06-17 08:01:00,
2013-06-17 01:11:00,55.0,51.0,30.04,SW,233,2.0,-999.0,86,-99.99,,,-99.99,,2013-06-17 08:11:00,
2013-06-17 01:21:00,54.0,50.0,30.04,WSW,243,3.0,-999.0,87,-99.99,,,-99.99,,2013-06-17 08:21:00,
2013-06-17 01:33:00,54.0,50.0,30.04,WSW,243,3.0,-999.0,87,-99.99,,,-99.99,,2013-06-17 08:33:00,
2013-06-17 01:43:00,53.0,50.0,30.04,WSW,243,2.0,-999.0,89,-99.99,,,-99.99,,2013-06-17 08:43:00,
2013-06-17 01:52:00,53.0,50.0,30.04,WSW,243,2.0,-999.0,89,-99.99,,,-99.99,,2013-06-17 08:52:00,
2013-06-17 02:01:00,53.0,50.0,30.04,WSW,243,2.0,-999.0,89,-99.99,,,-99.99,,2013-06-17 09:01:00,
2013-06-17 02:11:00,53.0,50.0,30.04,SW,229,2.0,-999.0,90,-99.99,,,-99.99,,2013-06-17 09:11:00,
2013-06-17 02:21:00,53.0,50.0,30.04,SW,229,2.0,-999.0,90,-99.99,,,-99.99,,2013-06-17 09:21:00,
2013-06-17 02:33:00,53.0,50.0,30.03,SW,220,3.0,-999.0,90,-99.99,,,-99.99,,2013-06-17 09:33:00,
2013-06-17 02:43:00,53.0,50.0,30.03,SW,230,1.0,-999.0,90,-99.99,,,-99.99,,2013-06-17 09:43:00,
2013-06-17 02:52:00,53.0,50.0,30.03,SW,230,1.0,-999.0,90,-99.99,,,-99.99,,2013-06-17 09:52:00,
2013-06-17 03:02:00,53.0,50.0,30.03,SW,217,2.0,-999.0,90,-99.99,,,-99.99,,2013-06-17 10:02:00,
2013-06-17 03:12:00,53.0,50.0,30.03,SW,234,3.0,-999.0,90,-99.99,,,-99.99,,2013-06-17 10:12:00,
2013-06-17 03:22:00,53.0,50.0,30.02,SW,234,5.0,-999.0,90,-99.99,,,-99.99,,2013-06-17 10:22:00,
2013-06-17 03:33:00,53.0,50.0,30.02,SW,234,5.0,-999.0,90,-99.99,,,-99.99,,2013-06-17 10:33:00,
2013-06-17 03:42:00,53.0,50.0,30.01,WSW,243,3.0,-999.0,90,-99.99,,,-99.99,,2013-06-17 10:42:00,
2013-06-17 03:53:00,53.0,50.0,30.01,WSW,243,3.0,-999.0,90,-99.99,,,-99.99,,2013-06-17 10:53:00,
2013-06-17 04:02:00,53.0,50.0,30.01,SW,227,4.0,-999.0,90,-99.99,,,-99.99,,2013-06-17 11:02:00,
2013-06-17 04:11:00,53.0,50.0,30.02,SW,236,6.0,-999.0,91,-99.99,,,-99.99,,2013-06-17 11:11:00,
2013-06-17 04:23:00,53.0,50.0,30.01,SW,231,5.0,-999.0,91,-99.99,,,-99.99,,2013-06-17 11:23:00,
2013-06-17 04:33:00,53.0,50.0,30.01,SW,231,5.0,-999.0,91,-99.99,,,-99.99,,2013-06-17 11:33:00,
2013-06-17 04:43:00,53.0,50.0,30.01,WSW,240,4.0,-999.0,91,-99.99,,,-99.99,,2013-06-17 11:43:00,
2013-06-17 04:53:00,53.0,50.0,30.01,WSW,240,4.0,-999.0,91,-99.99,,,-99.99,,2013-06-17 11:53:00,
2013-06-17 05:02:00,53.0,50.0,30.01,SW,226,3.0,-999.0,91,-99.99,,,-99.99,,2013-06-17 12:02:00,
2013-06-17 05:11:00,53.0,50.0,30.01,SW,226,3.0,-999.0,91,-99.99,,,-99.99,,2013-06-17 12:11:00,
2013-06-17 05:22:00,53.0,51.0,30.01,WSW,241,4.0,-999.0,92,-99.99,,,-99.99,,2013-06-17 12:22:00,
2013-06-17 05:33:00,53.0,51.0,30.01,WSW,240,1.0,-999.0,92,-99.99,,,-99.99,,2013-06-17 12:33:00,
2013-06-17 05:43:00,53.0,51.0,30.02,SW,217,2.0,-999.0,92,-99.99,,,-99.99,,2013-06-17 12:43:00,
2013-06-17 05:53:00,53.0,51.0,30.02,SW,217,2.0,-999.0,92,-99.99,,,-99.99,,2013-06-17 12:53:00,
2013-06-17 06:01:00,53.0,51.0,30.02,SW,226,2.0,-999.0,92,-99.99,,,-99.99,,2013-06-17 13:01:00,
2013-06-17 06:11:00,53.0,51.0,30.01,WSW,239,2.0,-999.0,92,-99.99,,,-99.99,,2013-06-17 13:11:00,
2013-06-17 06:22:00,53.0,51.0,30.01,WSW,239,2.0,-999.0,92,-99.99,,,-99.99,,2013-06-17 13:22:00,
2013-06-17 06:32:00,53.0,51.0,30.01,WSW,239,1.0,-999.0,92,-99.99,,,-99.99,,2013-06-17 13:32:00,
2013-06-17 06:43:00,53.0,51.0,30.01,WSW,239,1.0,-999.0,92,-99.99,,,-99.99,,2013-06-17 13:43:00,
2013-06-17 06:52:00,53.0,51.0,30.01,WSW,239,1.0,-999.0,92,-99.99,,,-99.99,,2013-06-17 13:52:00,
2013-06-17 07:02:00,53.0,51.0,30.01,WSW,239,0.0,-999.0,92,-99.99,,,-99.99,,2013-06-17 14:02:00,
2013-06-17 07:11:00,53.0,51.0,30.01,WSW,239,0.0,-999.0,93,-99.99,,,-99.99,,2013-06-17 14:11:00,
2013-06-17 07:22:00,53.0,51.0,30.01,WSW,239,0.0,-999.0,93,-99.99,,,-99.99,,2013-06-17 14:22:00,
2013-06-17 07:34:00,53.0,51.0,30.01,WSW,239,1.0,-999.0,92,-99.99,,,-99.99,,2013-06-17 14:34:00,
2013-06-17 07:43:00,54.0,52.0,30.01,WSW,237,2.0,-999.0,93,-99.99,,,-99.99,,2013-06-17 14:43:00,
2013-06-17 07:53:00,54.0,52.0,30.01,WSW,237,2.0,-999.0,93,-99.99,,,-99.99,,2013-06-17 14:53:00,
2013-06-17 08:01:00,56.0,53.0,30.01,WSW,237,0.0,-999.0,90,-99.99,,,-99.99,,2013-06-17 15:01:00,
2013-06-17 08:11:00,56.0,53.0,30.01,WSW,237,0.0,-999.0,90,-99.99,,,-99.99,,2013-06-17 15:11:00,
2013-06-17 08:22:00,56.0,53.0,30.01,SSE,150,1.0,-999.0,89,-99.99,,,-99.99,,2013-06-17 15:22:00,
2013-06-17 08:33:00,56.0,52.0,30.01,SSE,147,0.0,-999.0,88,-99.99,,,-99.99,,2013-06-17 15:33:00,
2013-06-17 08:43:00,56.0,52.0,30.01,SSE,147,0.0,-999.0,88,-99.99,,,-99.99,,2013-06-17 15:43:00,
2013-06-17 08:52:00,56.0,52.0,30.01,SSE,147,0.0,-999.0,88,-99.99,,,-99.99,,2013-06-17 15:52:00,
2013-06-17 09:02:00,57.0,53.0,30.02,SSE,165,2.0,-999.0,87,-99.99,,,-99.99,,2013-06-17 16:02:00,
2013-06-17 09:11:00,58.0,53.0,30.01,South,173,0.0,-999.0,84,-99.99,,,-99.99,,2013-06-17 16:11:00,
2013-06-17 09:22:00,58.0,53.0,30.01,South,173,0.0,-999.0,84,-99.99,,,-99.99,,2013-06-17 16:22:00,
2013-06-17 09:33:00,58.0,53.0,30.01,South,174,1.0,-999.0,84,-99.99,,,-99.99,,2013-06-17 16:33:00,
2013-06-17 09:43:00,58.0,54.0,30.01,South,177,0.0,-999.0,85,-99.99,,,-99.99,,2013-06-17 16:43:00,
2013-06-17 09:53:00,58.0,54.0,30.01,South,177,0.0,-999.0,85,-99.99,,,-99.99,,2013-06-17 16:53:00,
2013-06-17 10:02:00,60.0,54.0,30.01,WSW,240,2.0,-999.0,81,-99.99,,,-99.99,,2013-06-17 17:02:00,
2013-06-17 10:11:00,60.0,54.0,30.01,WSW,240,2.0,-999.0,81,-99.99,,,-99.99,,2013-06-17 17:11:00,
2013-06-17 10:22:00,64.0,56.0,30.00,SSE,147,1.0,-999.0,76,-99.99,,,-99.99,,2013-06-17 17:22:00,
2013-06-17 10:33:00,64.0,56.0,30.00,SSE,147,1.0,-999.0,76,-99.99,,,-99.99,,2013-06-17 17:33:00,
2013-06-17 10:43:00,65.0,56.0,30.00,WSW,244,3.0,-999.0,74,-99.99,,,-99.99,,2013-06-17 17:43:00,
2013-06-17 10:52:00,65.0,56.0,30.00,WSW,244,3.0,-999.0,74,-99.99,,,-99.99,,2013-06-17 17:52:00,
2013-06-17 11:01:00,64.0,55.0,29.99,SE,130,4.0,-999.0,72,-99.99,,,-99.99,,2013-06-17 18:01:00,
2013-06-17 11:11:00,64.0,55.0,29.99,SE,130,4.0,-999.0,72,-99.99,,,-99.99,,2013-06-17 18:11:00,
2013-06-17 11:23:00,65.0,55.0,29.99,SSW,196,5.0,-999.0,70,-99.99,,,-99.99,,2013-06-17 18:23:00,
2013-06-17 11:33:00,67.0,56.0,29.98,SSE,165,5.0,-999.0,67,-99.99,,,-99.99,,2013-06-17 18:33:00,
2013-06-17 11:42:00,68.0,55.0,29.98,SSW,203,5.0,-999.0,64,-99.99,,,-99.99,,2013-06-17 18:42:00,
2013-06-17 11:53:00,68.0,55.0,29.98,SSW,203,5.0,-999.0,64,-99.99,,,-99.99,,2013-06-17 18:53:00,
2013-06-17 12:02:00,68.0,53.0,29.98,SSW,211,6.0,-999.0,59,-99.99,,,-99.99,,2013-06-17 19:02:00,
2013-06-17 12:11:00,68.0,53.0,29.98,SSW,211,6.0,-999.0,59,-99.99,,,-99.99,,2013-06-17 19:11:00,
2013-06-17 12:22:00,68.0,54.0,29.98,SW,231,7.0,-999.0,60,-99.99,,,-99.99,,2013-06-17 19:22:00,
2013-06-17 12:33:00,69.0,54.0,29.97,WSW,240,8.0,-999.0,59,-99.99,,,-99.99,,2013-06-17 19:33:00,
2013-06-17 12:43:00,68.0,54.0,29.97,SW,221,4.0,-999.0,61,-99.99,,,-99.99,,2013-06-17 19:43:00,
2013-06-17 12:53:00,68.0,54.0,29.97,SW,221,4.0,-999.0,61,-99.99,,,-99.99,,2013-06-17 19:53:00,
2013-06-17 13:02:00,69.0,54.0,29.96,WSW,242,4.0,-999.0,58,-99.99,,,-99.99,,2013-06-17 20:02:00,
2013-06-17 13:11:00,70.0,53.0,29.96,West,262,4.0,-999.0,54,-99.99,,,-99.99,,2013-06-17 20:11:00,
2013-06-17 13:22:00,70.0,53.0,29.96,West,262,4.0,-999.0,54,-99.99,,,-99.99,,2013-06-17 20:22:00,
2013-06-17 13:34:00,70.0,55.0,29.96,SSW,198,5.0,-999.0,58,-99.99,,,-99.99,,2013-06-17 20:34:00,
2013-06-17 13:43:00,70.0,54.0,29.95,North,358,3.0,-999.0,57,-99.99,,,-99.99,,2013-06-17 20:43:00,
2013-06-17 13:52:00,70.0,54.0,29.95,North,358,3.0,-999.0,57,-99.99,,,-99.99,,2013-06-17 20:52:00,
2013-06-17 14:01:00,70.0,53.0,29.95,SSE,162,5.0,-999.0,55,-99.99,,,-99.99,,2013-06-17 21:01:00,
2013-06-17 14:12:00,70.0,53.0,29.95,SSE,162,5.0,-999.0,55,-99.99,,,-99.99,,2013-06-17 21:12:00,
2013-06-17 14:22:00,71.0,52.0,29.94,SW,232,3.0,-999.0,52,-99.99,,,-99.99,,2013-06-17 21:22:00,
2013-06-17 14:33:00,71.0,52.0,29.94,SE,136,3.0,-999.0,52,-99.99,,,-99.99,,2013-06-17 21:33:00,
2013-06-17 14:43:00,72.0,53.0,29.93,South,190,3.0,-999.0,51,-99.99,,,-99.99,,2013-06-17 21:43:00,
2013-06-17 14:52:00,72.0,53.0,29.93,South,190,3.0,-999.0,51,-99.99,,,-99.99,,2013-06-17 21:52:00,
2013-06-17 15:01:00,72.0,53.0,29.93,SW,230,3.0,-999.0,52,-99.99,,,-99.99,,2013-06-17 22:01:00,
2013-06-17 15:11:00,72.0,53.0,29.93,SW,230,3.0,-999.0,52,-99.99,,,-99.99,,2013-06-17 22:11:00,
2013-06-17 15:22:00,72.0,53.0,29.93,SW,230,3.0,-999.0,52,-99.99,,,-99.99,,2013-06-17 22:22:00,
2013-06-17 15:33:00,73.0,52.0,29.91,SSW,212,4.0,-999.0,47,-99.99,,,-99.99,,2013-06-17 22:33:00,
2013-06-17 15:43:00,73.0,50.0,29.91,WSW,238,7.0,-999.0,45,-99.99,,,-99.99,,2013-06-17 22:43:00,
2013-06-17 15:53:00,73.0,50.0,29.91,WSW,238,7.0,-999.0,45,-99.99,,,-99.99,,2013-06-17 22:53:00,
2013-06-17 16:02:00,74.0,52.0,29.90,WSW,242,4.0,-999.0,47,-99.99,,,-99.99,,2013-06-17 23:02:00,
2013-06-17 16:11:00,74.0,52.0,29.90,WSW,242,4.0,-999.0,47,-99.99,,,-99.99,,2013-06-17 23:11:00,
2013-06-17 16:22:00,74.0,51.0,29.89,WSW,245,6.0,-999.0,44,-99.99,,,-99.99,,2013-06-17 23:22:00,
2013-06-17 16:32:00,74.0,50.0,29.88,SSW,194,4.0,-999.0,43,-99.99,,,-99.99,,2013-06-17 23:32:00,
2013-06-17 16:42:00,74.0,47.0,29.88,West,259,5.0,-999.0,39,-99.99,,,-99.99,,2013-06-17 23:42:00,
2013-06-17 16:52:00,74.0,47.0,29.88,West,259,5.0,-999.0,39,-99.99,,,-99.99,,2013-06-17 23:52:00,
2013-06-17 17:01:00,74.0,52.0,29.88,WSW,245,3.0,-999.0,46,-99.99,,,-99.99,,2013-06-18 00:01:00,
2013-06-17 17:12:00,74.0,52.0,29.88,WSW,245,3.0,-999.0,46,-99.99,,,-99.99,,2013-06-18 00:12:00,
2013-06-17 17:22:00,74.0,49.0,29.87,WSW,253,5.0,-999.0,41,-99.99,,,-99.99,,2013-06-18 00:22:00,
2013-06-17 17:32:00,73.0,48.0,29.87,WSW,249,5.0,-999.0,41,-99.99,,,-99.99,,2013-06-18 00:32:00,
2013-06-17 17:43:00,72.0,48.0,29.87,SW,231,6.0,-999.0,43,-99.99,,,-99.99,,2013-06-18 00:43:00,
2013-06-17 17:52:00,72.0,48.0,29.87,SW,231,6.0,-999.0,43,-99.99,,,-99.99,,2013-06-18 00:52:00,
2013-06-17 18:01:00,72.0,48.0,29.87,SW,231,6.0,-999.0,43,-99.99,,,-99.99,,2013-06-18 01:01:00,
2013-06-17 18:11:00,71.0,49.0,29.86,West,259,5.0,-999.0,45,-99.99,,,-99.99,,2013-06-18 01:11:00,
2013-06-17 18:22:00,71.0,51.0,29.87,West,261,6.0,-999.0,49,-99.99,,,-99.99,,2013-06-18 01:22:00,
2013-06-17 18:33:00,69.0,53.0,29.86,SW,234,10.0,-999.0,56,-99.99,,,-99.99,,2013-06-18 01:33:00,
2013-06-17 18:44:00,69.0,53.0,29.86,SW,234,10.0,-999.0,56,-99.99,,,-99.99,,2013-06-18 01:44:00,
2013-06-17 18:53:00,68.0,53.0,29.86,WSW,241,12.0,-999.0,59,-99.99,,,-99.99,,2013-06-18 01:53:00,
2013-06-17 19:02:00,67.0,54.0,29.86,WSW,256,13.0,-999.0,63,-99.99,,,-99.99,,2013-06-18 02:02:00,
2013-06-17 19:11:00,67.0,54.0,29.86,WSW,256,13.0,-999.0,63,-99.99,,,-99.99,,2013-06-18 02:11:00,
2013-06-17 19:22:00,66.0,54.0,29.86,SW,231,12.0,-999.0,65,-99.99,,,-99.99,,2013-06-18 02:22:00,
2013-06-17 19:33:00,65.0,54.0,29.85,SW,234,12.0,-999.0,68,-99.99,,,-99.99,,2013-06-18 02:33:00,
2013-06-17 19:43:00,65.0,54.0,29.85,SW,234,12.0,-999.0,68,-99.99,,,-99.99,,2013-06-18 02:43:00,
2013-06-17 19:53:00,64.0,54.0,29.86,SW,226,13.0,-999.0,71,-99.99,,,-99.99,,2013-06-18 02:53:00,
2013-06-17 20:02:00,62.0,53.0,29.86,SW,221,16.0,-999.0,73,-99.99,,,-99.99,,2013-06-18 03:02:00,
2013-06-17 20:11:00,62.0,53.0,29.86,SW,221,16.0,-999.0,73,-99.99,,,-99.99,,2013-06-18 03:11:00,
2013-06-17 20:23:00,61.0,53.0,29.86,WSW,249,14.0,-999.0,74,-99.99,,,-99.99,,2013-06-18 03:23:00,
2013-06-17 20:33:00,61.0,52.0,29.87,WSW,238,15.0,-999.0,73,-99.99,,,-99.99,,2013-06-18 03:33:00,
2013-06-17 20:42:00,61.0,52.0,29.87,WSW,238,15.0,-999.0,73,-99.99,,,-99.99,,2013-06-18 03:42:00,
2013-06-17 20:53:00,60.0,51.0,29.88,WSW,238,16.0,-999.0,71,-99.99,,,-99.99,,2013-06-18 03:53:00,
2013-06-17 21:01:00,60.0,50.0,29.88,WSW,246,17.0,-999.0,70,-99.99,,,-99.99,,2013-06-18 04:01:00,
2013-06-17 21:11:00,60.0,50.0,29.88,WSW,246,17.0,-999.0,70,-99.99,,,-99.99,,2013-06-18 04:11:00,
2013-06-17 21:22:00,60.0,50.0,29.88,WSW,241,16.0,-999.0,69,-99.99,,,-99.99,,2013-06-18 04:22:00,
2013-06-17 21:33:00,60.0,50.0,29.88,WSW,241,16.0,-999.0,69,-99.99,,,-99.99,,2013-06-18 04:33:00,
2013-06-17 21:42:00,60.0,50.0,29.88,WSW,241,16.0,-999.0,69,-99.99,,,-99.99,,2013-06-18 04:42:00,
2013-06-17 21:53:00,56.0,53.0,29.91,WSW,257,7.0,-999.0,91,-99.99,,,-99.99,,2013-06-18 04:53:00,
2013-06-17 22:02:00,55.0,53.0,29.92,SW,236,7.0,-999.0,92,-99.99,,,-99.99,,2013-06-18 05:02:00,
2013-06-17 22:12:00,55.0,53.0,29.92,SW,236,7.0,-999.0,92,-99.99,,,-99.99,,2013-06-18 05:12:00,
2013-06-17 22:22:00,55.0,53.0,29.92,WSW,253,7.0,-999.0,92,-99.99,,,-99.99,,2013-06-18 05:22:00,
2013-06-17 22:33:00,55.0,53.0,29.93,WSW,242,7.0,-999.0,93,-99.99,,,-99.99,,2013-06-18 05:33:00,
2013-06-17 22:43:00,55.0,53.0,29.93,WSW,242,7.0,-999.0,93,-99.99,,,-99.99,,2013-06-18 05:43:00,
2013-06-17 22:53:00,55.0,53.0,29.92,SW,236,8.0,-999.0,94,-99.99,,,-99.99,,2013-06-18 05:53:00,
2013-06-17 23:02:00,55.0,53.0,29.92,WSW,243,8.0,-999.0,94,-99.99,,,-99.99,,2013-06-18 06:02:00,
2013-06-17 23:11:00,55.0,53.0,29.92,WSW,243,8.0,-999.0,94,-99.99,,,-99.99,,2013-06-18 06:11:00,
2013-06-17 23:23:00,55.0,53.0,29.92,WSW,243,8.0,-999.0,94,-99.99,,,-99.99,,2013-06-18 06:23:00,
2013-06-17 23:32:00,55.0,53.0,29.91,WSW,237,8.0,-999.0,94,-99.99,,,-99.99,,2013-06-18 06:32:00,
2013-06-17 23:43:00,54.0,52.0,29.92,SW,217,8.0,-999.0,94,-99.99,,,-99.99,,2013-06-18 06:43:00,
2013-06-17 23:53:00,54.0,52.0,29.92,SW,217,8.0,-999.0,94,-99.99,,,-99.99,,2013-06-18 06:53:00,